Location: Firestone Park
(33.9631°N, 118.2326°W)
Time: 20:48:48
(UTC+00:00)

Cosmos 1515 - Visible Passes

Search period start: 19 September 2024 00:00
Search period end: 29 September 2024 00:00
Orbit: 434 x 440 km, 82.5° (Epoch: 18 September)

Date Brightness Start Highest point End Pass type
(mag) Time Alt. Az. Time Alt. Az. Time Alt. Az.
19 Sep 5.0 11:42:52 30° NNE 11:42:52 30° NNE 11:44:45 10° NNE visible
20 Sep 6.7 11:04:27 11° NE 11:04:27 11° NE 11:04:40 10° NE visible
20 Sep 5.8 12:37:53 10° NW 12:37:53 10° NW 12:37:55 10° NW visible
21 Sep 6.0 11:59:19 12° NNW 11:59:19 12° NNW 11:59:38 10° N visible
